{"data":{"norad_id":60511,"epoch":"2026-08-03T19:03:18.197568Z","epoch_age_seconds":4140145,"freshness":"OLD","line1":"1 60511U 24149AV  26215.79396062  .00077325  00000+0  10040-2 0  9991","line2":"2 60511  97.3805 304.6388 0003937 122.8038 237.3598 15.58559564109904","mean_motion":15.58559564,"eccentricity":0.0003937,"inclination_deg":97.3805,"raan_deg":304.6388,"arg_perigee_deg":122.8038,"mean_anomaly_deg":237.3598,"bstar":0.001004,"rev_number":10990,"period_min":92.39300398018,"perigee_km":389.15978021692,"apogee_km":394.49044838572,"semimajor_km":6769.9621143013,"source":"CELESTRAK","updated_at":"2026-08-05T09:02:32.021990Z"}}